Showing default

LEMUR 1, 40044

Orbit data source: Space-Track

LEMUR 1, 40044 is a payload satellite owned by NanoSatisfi (US) in SSO that was launched on Thu, 19 Jun 2014 UTC via a DNEPR launch vehicle from the Orenburg, Russia (OREN). Payload-class satellites include a variety of spacecraft equipped with specific instruments for various scientific and technological missions. These include communications satellites like Starlink; space stations such as the ISS; scientific satellites like the Hubble; Earth observation satellites from companies like Planet Labs, Umbra, and HawkEye 360; GPS; miniature CubeSats for education and research; and military/defense satellites.

Loading next visibility...
Identifier
40044, 2014-033AL
Orbit
SSO
Country
Flag of USUS
Related business
Manufacturer
NanoSatisfi
Mission
Operational Commercial Technology
Bus & Motor
CUBESAT 3U, Unknown motor
Mass
~4 kg wet, ~4 kg dry
Launch date (UTC)
2014-06-19 (11 years ago)
Launch vehicle
DNEPR
Launch site
Orenburg, Russia (OREN)
Object type
Payload
Rocket body
Debris
Shape & HBR
Box, 0.3 m
Radar Cross Section
0.093 m², Small (<0.1 m²)

Expand to show TLE details & history
Last TLE update: 21 hours ago

TLE from 21 hours ago
0 LEMUR 1
1 40044U 14033AL  25242.15738212  .00003407  00000-0  41395-3 0  9996
2 40044  97.7506  34.4815 0049148 313.4755  46.2376 14.83310659602294
Epoch: 2025-08-30T03:46Z
TLE epoch observation values (Epoch: 2025-08-30T03:46:37.815Z)
Latitude
-0.00008°
Longitude
-0.77176°
Altitude
598.222 km
Speed
7.573 km/s
True Right ascension
02h 17m 55s
True Declination
0° 00' 00"
Sunlit
Object was in full shadow at epoch
Visualization orbit readout
Latitude
Unknown
Longitude
Unknown
Altitude
Unknown
Speed
Unknown
Apparent Right ascension
Unknown
Apparent Declination
Unknown
Sunlit
N/A
Visualization observer readout
Local Sidereal Time
16:02:56
Azimuth
Unknown
Elevation
Unknown
Doppler factor
Unknown
Orbital elements
Apogee altitude
650.298 km
Perigee altitude
581.549 km
Semi-major axis
6,994.06 km
Eccentricity
0.00491
Inclination
97.7506°
RAAN
34.4815°
Arg. of periapsis
313.4755°
True anomaly
46.64608°
Mean anomaly
46.2376°
Eccentric anomaly
46.44167°
Mean motion
3.71064 °/min
Orbital period
97.02 mins
BSTAR
0.00041395
Loading maneuver chart data...
Computing Atmospheric mass density...
Loading historical data...
Loading historical data...
Loading historical data...
Loading historical data...
Loading historical data...
Loading historical data...
Loading historical data...

Documentation

Showing up to 5 results
|